Jaffrey, NH

1:41 AM EDT on August 27, 2016 (GMT -0400)
Jaffrey Airport-Silver Ranch

Weather History for KAFN - December, 2012

Change the Weather History Date:

Thursday, December 13, 2012

  Actual Average Record
Temperature  
Mean Temperature 28 °F -  
Max Temperature 37 °F 34 °F 48 °F (2006)
Min Temperature 19 °F 19 °F 1 °F (2005)
Degree Days  
Heating Degree Days 37    
Moisture  
Dew Point 20 °F    
Average Humidity 77    
Maximum Humidity 89    
Minimum Humidity 47    
Precipitation  
Precipitation 0.00 in - - ()
Sea Level Pressure  
Sea Level Pressure 30.41 in    
Wind  
Wind Speed 2 mph (South)    
Max Wind Speed 5 mph    
Max Gust Speed -    
Visibility 10 miles    
Events      
Averages and records for this station are not official NWS values.
T = Trace of Precipitation, MM = Missing Value Source: NWS Daily Summary

Daily Weather History Graph

Daily Weather History Graph

Search for Another Location

Airport or City:

Trip Planner

Search our weather history database for the weather conditions in past years. The results will help you decide how hot, cold, wet, or windy it might be!

Date:

Astronomy

Dec. 13, 2012 Rise Set
Actual Time 7:10 AM EST 4:14 PM EST
Civil Twilight 6:38 AM EST 4:46 PM EST
Nautical Twilight 6:02 AM EST 5:22 PM EST
Astronomical Twilight 5:28 AM EST 5:56 PM EST
Moon 7:15 AM EST (12/13) 4:54 PM EST (12/13)
Length of Visible Light 10h 08m
Length of Day
9h 03m
New Moon, 0% of the Moon is Illuminated
Dec 13
New Moon
Dec 20
First Quarter
Dec 28
Full
Jan 4
Last Quarter
Jan 11
New

Hourly Weather History & Observations

Time (EST) Temp. Windchill Dew Point Humidity Pressure Visibility Wind Dir Wind Speed Gust Speed Precip Events Conditions
12:52 AM 21.9 °F 17.2 °F 19.0 °F 89% 30.44 in 10.0 mi South 3.5 mph - N/A   Clear
1:52 AM 21.9 °F 17.2 °F 19.0 °F 89% 30.45 in 10.0 mi South 3.5 mph - N/A   Mostly Cloudy
2:52 AM 24.1 °F 19.7 °F 21.0 °F 88% 30.44 in 9.0 mi SSE 3.5 mph - N/A   Overcast
3:52 AM 23.0 °F - 19.9 °F 88% 30.43 in 10.0 mi Calm Calm - N/A   Partly Cloudy
4:52 AM 21.0 °F 14.6 °F 18.0 °F 88% 30.44 in 10.0 mi South 4.6 mph - N/A   Clear
5:52 AM 21.0 °F - 18.0 °F 88% 30.45 in 10.0 mi Calm Calm - N/A   Clear
6:52 AM 19.9 °F - 17.1 °F 89% 30.48 in 10.0 mi Calm Calm - N/A   Clear
7:52 AM 19.0 °F - 16.0 °F 88% 30.47 in 10.0 mi Calm Calm - N/A   Clear
8:52 AM 23.0 °F - 19.9 °F 88% 30.48 in 10.0 mi Calm Calm - N/A   Clear
9:52 AM 30.9 °F - 26.1 °F 82% 30.47 in 10.0 mi Calm Calm - N/A   Clear
10:52 AM 35.1 °F - 23.0 °F 61% 30.43 in 10.0 mi Calm Calm - N/A   Clear
11:52 AM 37.0 °F - 21.9 °F 54% 30.42 in 10.0 mi Calm Calm - N/A   Clear
12:52 PM 37.0 °F - 19.0 °F 48% 30.41 in 10.0 mi Calm Calm - N/A   Clear
1:52 PM 37.9 °F 35.5 °F 19.9 °F 48% 30.40 in 10.0 mi SSE 3.5 mph - N/A   Clear
2:52 PM 37.9 °F 35.5 °F 19.0 °F 47% 30.38 in 10.0 mi Variable 3.5 mph - N/A   Clear
3:52 PM 36.0 °F - 19.9 °F 52% 30.38 in 10.0 mi Calm Calm - N/A   Clear
4:52 PM 28.9 °F - 21.0 °F 72% 30.38 in 10.0 mi Calm Calm - N/A   Clear
7:52 PM 24.1 °F - 19.9 °F 84% 30.37 in 10.0 mi Calm Calm - N/A   Clear
8:52 PM 23.0 °F 18.4 °F 19.9 °F 88% 30.36 in 10.0 mi South 3.5 mph - N/A   Clear
9:52 PM 21.9 °F - 19.0 °F 89% 30.33 in 10.0 mi Calm Calm - N/A   Clear
10:52 PM 21.0 °F - 18.0 °F 88% 30.32 in 10.0 mi Calm Calm - N/A   Clear
11:52 PM 21.9 °F 17.2 °F 19.0 °F 89% 30.30 in 10.0 mi South 3.5 mph - N/A   Clear